Weather History for Sparta, WI

Change the Weather History Date:

Wednesday, December 4, 2013

  Actual Average Record
Temperature  
Mean Temperature 35 °F -  
Max Temperature 40 °F 29 °F 64 °F (2001)
Min Temperature 29 °F 12 °F -11 °F (1976)
Degree Days  
Heating Degree Days 30    
Moisture  
Dew Point 33 °F    
Average Humidity 98    
Maximum Humidity 100    
Minimum Humidity 79    
Precipitation  
Precipitation 0.08 in - - ()
Sea Level Pressure  
Sea Level Pressure 29.62 in    
Wind  
Wind Speed 8 mph (East)    
Max Wind Speed 16 mph    
Max Gust Speed 23 mph    
Visibility 4 miles    
Events Rain    
Averages and records for this station are not official NWS values.
T = Trace of Precipitation, MM = Missing Value Source: NWS Daily Summary

Daily Weather History Graph

Daily Weather History Graph

Search for Another Location

Airport:

Trip Planner

Search our weather history database for the weather conditions in past years. The results will help you decide how hot, cold, wet, or windy it might be!

Date:

Astronomy

Dec. 04, 2013 Rise Set
Actual Time 7:21 AM CST 4:25 PM CST
Civil Twilight 6:48 AM CST 4:58 PM CST
Nautical Twilight 6:12 AM CST 5:34 PM CST
Astronomical Twilight 5:37 AM CST 6:08 PM CST
Moon 8:47 AM CST (12/4) 6:37 PM CST (12/4)
Length of Visible Light 10h 09m
Length of Day
9h 04m
Waxing Crescent, 4% of the Moon is Illuminated
Dec 4
Waxing Crescent
Dec 9
First Quarter
Dec 17
Full
Dec 25
Last Quarter
Jan 1
New

Hourly Weather History & Observations

Time (CST) Temp. Windchill Dew Point Humidity Pressure Visibility Wind Dir Wind Speed Gust Speed Precip Events Conditions
12:15 AM 32.9 °F 26.7 °F 32.9 °F 100% 29.75 in 5.0 mi ENE 6.9 mph - N/A   Overcast
12:19 AM 33.8 °F 27.7 °F 33.8 °F 100% 29.76 in 4.0 mi ENE 6.9 mph - N/A   Overcast
12:35 AM 32.7 °F 26.4 °F 32.7 °F 100% 29.76 in 3.0 mi ENE 6.9 mph - N/A   Overcast
12:39 AM 33.8 °F 26.4 °F 33.8 °F 100% 29.76 in 3.0 mi East 9.2 mph - N/A   Overcast
12:55 AM 32.5 °F 26.2 °F 32.5 °F 100% 29.75 in 3.0 mi ENE 6.9 mph - N/A   Overcast
12:59 AM 33.8 °F 26.4 °F 33.8 °F 100% 29.76 in 3.0 mi East 9.2 mph - N/A   Overcast
1:15 AM 32.5 °F 26.2 °F 32.5 °F 100% 29.76 in 3.0 mi ENE 6.9 mph - N/A   Overcast
1:19 AM 33.8 °F 27.0 °F 33.8 °F 100% 29.76 in 3.0 mi ENE 8.1 mph - N/A   Overcast
1:35 AM 32.5 °F 26.2 °F 32.5 °F 100% 29.76 in 3.0 mi ENE 6.9 mph - N/A   Overcast
1:39 AM 33.8 °F 27.7 °F 33.8 °F 100% 29.75 in 3.0 mi ENE 6.9 mph - N/A   Overcast
1:55 AM 32.5 °F 24.8 °F 32.5 °F 100% 29.74 in 4.0 mi East 9.2 mph - N/A   Overcast
1:59 AM 33.8 °F 26.4 °F 33.8 °F 100% 29.74 in 4.0 mi East 9.2 mph - N/A   Overcast
2:15 AM 32.5 °F 24.8 °F 32.5 °F 100% 29.73 in 5.0 mi East 9.2 mph - N/A   Overcast
2:35 AM 32.5 °F 26.2 °F 32.5 °F 100% 29.73 in 7.0 mi East 6.9 mph - N/A   Overcast
2:39 AM 33.8 °F 26.4 °F 33.8 °F 100% 29.74 in 7.0 mi East 9.2 mph - N/A   Overcast
2:55 AM 32.5 °F 24.2 °F 32.5 °F 100% 29.72 in 5.0 mi East 10.4 mph - N/A   Overcast
3:15 AM 32.5 °F 25.5 °F 32.5 °F 100% 29.72 in 5.0 mi ENE 8.1 mph - N/A   Overcast
3:19 AM 33.8 °F 27.7 °F 33.8 °F 100% 29.73 in 5.0 mi ENE 6.9 mph - N/A   Overcast
3:35 AM 32.2 °F 25.0 °F 32.2 °F 100% 29.72 in 5.0 mi ENE 8.1 mph - N/A   Overcast
3:39 AM 32.0 °F 26.4 °F 32.0 °F 100% 29.72 in 5.0 mi ENE 5.8 mph - N/A   Overcast
3:55 AM 32.0 °F 25.6 °F 32.0 °F 100% 29.72 in 4.0 mi ENE 6.9 mph - N/A   Overcast
3:59 AM 32.0 °F 26.4 °F 32.0 °F 100% 29.72 in 4.0 mi ENE 5.8 mph - N/A   Overcast
4:15 AM 32.0 °F 24.8 °F 32.0 °F 100% 29.70 in 4.0 mi East 8.1 mph - N/A   Overcast
4:19 AM 32.0 °F 24.8 °F 32.0 °F 100% 29.70 in 4.0 mi East 8.1 mph - N/A   Overcast
4:35 AM 32.0 °F 25.6 °F 32.0 °F 100% 29.71 in 5.0 mi NE 6.9 mph - N/A   Overcast
4:39 AM 32.0 °F 24.8 °F 32.0 °F 100% 29.71 in 5.0 mi NE 8.1 mph - N/A   Overcast
4:55 AM 32.0 °F 27.5 °F 32.0 °F 100% 29.72 in 5.0 mi ENE 4.6 mph - N/A   Overcast
4:59 AM 32.0 °F 25.6 °F 32.0 °F 100% 29.72 in 5.0 mi ENE 6.9 mph - N/A   Overcast
5:15 AM 32.0 °F 26.4 °F 32.0 °F 100% 29.72 in 4.0 mi East 5.8 mph - N/A   Overcast
5:35 AM 32.0 °F 26.4 °F 32.0 °F 100% 29.71 in 3.0 mi ENE 5.8 mph - N/A   Overcast
5:55 AM 32.0 °F 23.6 °F 32.0 °F 100% 29.70 in 3.0 mi ENE 10.4 mph - N/A   Overcast
5:59 AM 32.0 °F 24.8 °F 32.0 °F 100% 29.70 in 3.0 mi East 8.1 mph - N/A   Overcast
6:15 AM 32.0 °F 24.8 °F 32.0 °F 100% 29.69 in 5.0 mi East 8.1 mph - N/A   Overcast
6:19 AM 32.0 °F 24.2 °F 32.0 °F 100% 29.69 in 7.0 mi East 9.2 mph - N/A   Overcast
6:35 AM 32.0 °F 25.6 °F 32.0 °F 100% 29.70 in 5.0 mi ENE 6.9 mph - N/A   Overcast
6:55 AM 32.0 °F 25.6 °F 32.0 °F 100% 29.70 in 7.0 mi East 6.9 mph - N/A   Overcast
6:59 AM 32.0 °F 24.2 °F 32.0 °F 100% 29.69 in 7.0 mi East 9.2 mph - N/A   Overcast
7:15 AM 32.0 °F 24.2 °F 32.0 °F 100% 29.68 in 5.0 mi East 9.2 mph - N/A   Overcast
7:19 AM 32.0 °F 23.6 °F 32.0 °F 100% 29.68 in 4.0 mi East 10.4 mph - N/A   Overcast
7:35 AM 32.2 °F 23.8 °F 32.2 °F 100% 29.67 in 3.0 mi East 10.4 mph 17.3 mph N/A   Overcast
7:39 AM 32.0 °F 23.6 °F 32.0 °F 100% 29.67 in 3.0 mi East 10.4 mph - N/A   Overcast
7:55 AM 32.4 °F 24.0 °F 32.4 °F 100% 29.66 in 3.0 mi East 10.4 mph - N/A   Overcast
7:59 AM 32.0 °F 23.6 °F 32.0 °F 100% 29.66 in 3.0 mi East 10.4 mph 16.1 mph N/A   Overcast
8:15 AM 32.5 °F 24.8 °F 32.5 °F 100% 29.67 in 3.0 mi East 9.2 mph - N/A   Overcast
8:35 AM 32.9 °F 24.1 °F 32.9 °F 100% 29.67 in 1.5 mi East 11.5 mph - N/A   Overcast
8:55 AM 32.9 °F 25.9 °F 32.9 °F 100% 29.66 in 1.8 mi East 8.1 mph - N/A   Overcast
9:15 AM 32.9 °F 25.9 °F 32.9 °F 100% 29.66 in 1.2 mi East 8.1 mph - N/A   Overcast
9:35 AM 33.1 °F 25.5 °F 33.1 °F 100% 29.67 in 1.8 mi East 9.2 mph - N/A   Overcast
9:55 AM 33.4 °F 28.1 °F 33.4 °F 100% 29.67 in 1.8 mi East 5.8 mph - N/A   Overcast
10:15 AM 33.8 °F 30.8 °F 33.8 °F 100% 29.66 in 1.2 mi East 3.5 mph - N/A   Overcast
10:35 AM 33.8 °F 27.0 °F 33.8 °F 100% 29.64 in 1.5 mi East 8.1 mph - N/A   Overcast
10:55 AM 34.0 °F 27.2 °F 34.0 °F 100% 29.62 in 1.0 mi East 8.1 mph - N/A   Light Drizzle
11:15 AM 34.2 °F 26.8 °F 34.2 °F 100% 29.59 in 1.0 mi East 9.2 mph - N/A   Overcast
11:35 AM 34.3 °F 27.0 °F 34.3 °F 100% 29.57 in 1.2 mi East 9.2 mph - N/A   Overcast
11:55 AM 34.7 °F 28.1 °F 34.7 °F 100% 29.55 in 1.2 mi East 8.1 mph - N/A   Overcast
12:15 PM 34.9 °F 29.0 °F 34.9 °F 100% 29.54 in 1.0 mi East 6.9 mph - N/A   Overcast
12:35 PM 35.4 °F 30.5 °F 35.4 °F 100% 29.52 in 0.8 mi East 5.8 mph - N/A   Overcast
12:55 PM 35.6 °F 30.7 °F 35.6 °F 100% 29.51 in 1.0 mi East 5.8 mph - N/A   Overcast
1:15 PM 36.1 °F 31.4 °F 36.1 °F 100% 29.49 in 1.5 mi East 5.8 mph - N/A   Overcast
1:35 PM 36.5 °F 32.7 °F 36.5 °F 100% 29.48 in 2.0 mi East 4.6 mph - N/A   Overcast
1:55 PM 36.5 °F 33.9 °F 36.5 °F 100% 29.47 in 2.0 mi East 3.5 mph - N/A   Overcast
2:15 PM 36.9 °F 33.1 °F 36.9 °F 100% 29.46 in 2.5 mi ENE 4.6 mph - N/A   Overcast
2:35 PM 37.4 °F 34.9 °F 37.4 °F 100% 29.45 in 1.5 mi East 3.5 mph - N/A   Overcast
2:55 PM 37.4 °F 34.9 °F 37.4 °F 100% 29.45 in 1.0 mi East 3.5 mph - N/A   Overcast
3:15 PM 37.4 °F 33.8 °F 37.4 °F 100% 29.44 in 0.8 mi East 4.6 mph - N/A   Overcast
3:35 PM 37.6 °F 33.1 °F 37.6 °F 100% 29.43 in 1.2 mi East 5.8 mph - N/A   Overcast
3:55 PM 38.3 °F 35.9 °F 38.3 °F 100% 29.43 in 2.0 mi ESE 3.5 mph - N/A   Overcast
4:15 PM 38.5 °F 35.0 °F 38.5 °F 100% 29.42 in 5.0 mi East 4.6 mph - N/A   Overcast
4:35 PM 39.2 °F - 39.2 °F 100% 29.42 in 2.5 mi Calm Calm - 0.03 in Rain Rain
4:55 PM 39.0 °F - 39.0 °F 100% 29.42 in 3.0 mi Calm Calm - 0.04 in   Light Drizzle
5:15 PM 40.1 °F - 40.1 °F 100% 29.43 in 3.0 mi Calm Calm - N/A   Drizzle
5:35 PM 38.7 °F 35.2 °F 38.7 °F 100% 29.44 in 3.0 mi West 4.6 mph - 0.03 in Rain Light Rain
5:55 PM 38.5 °F 34.1 °F 38.5 °F 100% 29.45 in 2.5 mi West 5.8 mph - 0.04 in   Drizzle
6:15 PM 38.3 °F 33.9 °F 38.3 °F 100% 29.46 in 2.5 mi West 5.8 mph - N/A Rain Light Rain
6:35 PM 37.4 °F 31.4 °F 37.4 °F 100% 29.46 in 5.0 mi West 8.1 mph - N/A   Overcast
6:55 PM 37.0 °F 32.4 °F 37.0 °F 100% 29.46 in 10.0 mi West 5.8 mph - N/A   Overcast
7:15 PM 36.5 °F 30.3 °F 36.5 °F 100% 29.45 in 10.0 mi WSW 8.1 mph - N/A   Overcast
7:35 PM 35.8 °F 30.9 °F 35.6 °F 99% 29.47 in 10.0 mi WSW 5.8 mph - N/A   Overcast
7:55 PM 35.2 °F 27.6 °F 33.8 °F 94% 29.50 in 10.0 mi West 10.4 mph - N/A   Overcast
8:15 PM 34.9 °F 26.2 °F 32.9 °F 92% 29.50 in 10.0 mi West 12.7 mph 21.9 mph N/A   Overcast
8:35 PM 34.3 °F 25.5 °F 32.9 °F 94% 29.51 in 10.0 mi West 12.7 mph 18.4 mph N/A   Overcast
8:55 PM 33.8 °F 25.3 °F 32.0 °F 93% 29.53 in 10.0 mi West 11.5 mph 18.4 mph N/A   Overcast
9:15 PM 32.9 °F 23.2 °F 30.7 °F 92% 29.55 in 10.0 mi West 13.8 mph 23.0 mph N/A   Overcast
9:35 PM 32.0 °F 22.1 °F 29.5 °F 90% 29.54 in 10.0 mi West 13.8 mph 20.7 mph N/A   Overcast
9:55 PM 32.0 °F 22.1 °F 27.1 °F 82% 29.56 in 10.0 mi West 13.8 mph 21.9 mph N/A   Overcast
10:15 PM 31.8 °F 21.8 °F 26.6 °F 81% 29.58 in 10.0 mi WSW 13.8 mph 20.7 mph N/A   Overcast
10:35 PM 31.6 °F 23.1 °F 26.4 °F 81% 29.60 in 10.0 mi WSW 10.4 mph 23.0 mph N/A   Overcast
10:55 PM 31.3 °F 21.6 °F 26.4 °F 82% 29.60 in 10.0 mi WSW 12.7 mph 18.4 mph N/A   Overcast
11:15 PM 31.1 °F 21.9 °F 25.7 °F 80% 29.61 in 10.0 mi WSW 11.5 mph 19.6 mph N/A   Overcast
11:35 PM 30.2 °F 20.2 °F 24.3 °F 79% 29.62 in 10.0 mi West 12.7 mph 20.7 mph N/A   Overcast
11:55 PM 29.3 °F 17.7 °F 23.5 °F 79% 29.64 in 10.0 mi WSW 16.1 mph 23.0 mph N/A   Overcast